Location: Grasslands National Park East Block
(49.0708°N, 106.5295°W)
Time: 00:38:21
(UTC-06:00)

Vanguard 1 - Pass Details

Date: 30 September 2019
Orbit: 653 x 3830 km, 34.2° (Epoch: 17 October)

Event Time Altitude Azimuth Distance (km) Brightness Sun altitude
Rises 01:37:11 0° 239° (WSW) 6,964 - -42.8°
Reaches altitude 10° 01:41:34 10° 234° (SW) 6,256 - -42.7°
Maximum altitude 02:01:53 51° 167° (SSE) 4,441 - -41.6°
Exits shadow 02:03:47 50° 156° (SSE) 4,462 12.9 -41.5°
Drops below altitude 10° 02:22:16 10° 101° (E) 6,288 14.3 -40.2°
Sets 02:26:40 0° 96° (E) 7,003 14.7 -39.8°
